Content
SEND FEEDBACK

Daily
Averages
Monthly
Summary
Canada

VANCOUVER - UNIVERSITY, BRITISH COLUMBIA


Home > North America > Canada > British Columbia
Elevation: 249 feet     Latitude: 49 15N     Longitude: 123 15W

WEATHER
 
SELECT A DAY
Number of Records: 194,665;   Date Range: 1/1/95 - 8/19/14
 
SHARE

PRINT THIS DATA

[ ← Previous Day ]
WEATHER ALMANAC - FEBRUARY 14, 2013
[ Next Day → ]
[ °C ]   °F
Weather ElementAverageHighLow
Temperature43.2 °F45 °F (4:00 pm)41 °F (1:00 am)
Dewpoint24 °F39.2 °F (11:00 am) (7:00 pm)
Humidity81.8 %87 % (5:00 am)74 % (4:00 pm)
Wind Speed6 mph9.2 mph (12:00 pm)
Weather ElementAverage
Visibility9.4 mi
Wind DirectionESE (97.4 °)

Weather ElementTotal
Precipitation---
Heating Degree Days22 (Base 65)
Averaged from 43 records on February 14, 2013
WEATHER CONDITIONS BREAKOUT
WIND DIRECTION BREAKOUT
WEATHER BY HOUR - FEBRUARY 14, 2013
[ °C ]   °F
Local TimeTemperatureDewpointHumidityBarometerVisibilityWind DirectionWind SpeedGust SpeedPrecipitationEventsConditions
1:00 AM41.0 °F35.6 °F81 %30.48 in20.0 miEast (90°)6.9 mphOvercast
2:00 AM42.8 °F35.6 °F76 %30.48 in20.0 miEast (80°)8.1 mphOvercast
3:00 AM42.8 °F37.4 °F81 %30.49 in15.0 miEast (90°)6.9 mphRainLight Rain
4:00 AM42.0 °F37.0 °F77 %30.51 in12.0 miESE (110°)6.9 mphRainLight Rain
4:00 AM42.8 °F37.4 °F81 %30.51 in12.0 miESE (110°)6.9 mphRainLight Rain
5:00 AM41.0 °F37.4 °F87 %30.51 in10.0 miSE (130°)3.5 mphRainLight Rain
5:36 AM41.0 °F0.0 °F12.0 miSE (130°)4.6 mphOvercast
6:00 AM41.0 °F37.4 °F87 %30.52 in12.0 miCalmOvercast
7:00 AM41.0 °F37.4 °F87 %30.53 in12.0 miSE (140°)2.3 mphOvercast
7:13 AM41.0 °F0.0 °F12.0 miESE (120°)3.5 mphOvercast
8:00 AM41.0 °F37.4 °F87 %30.53 in12.0 miESE (120°)2.3 mphOvercast
9:00 AM42.8 °F37.4 °F81 %30.55 in12.0 miEast (80°)4.6 mphLight Drizzle
9:03 AM42.8 °F0.0 °F6.0 miEast (80°)4.6 mphLight Drizzle
9:41 AM42.8 °F0.0 °F3.0 miEast (80°)8.1 mphLight Drizzle
9:44 AM42.8 °F0.0 °F3.0 miEast (80°)8.1 mphLight Drizzle
10:00 AM42.8 °F37.4 °F81 %30.56 in3.0 miEast (80°)6.9 mphLight Drizzle
10:00 AM42.0 °F38.0 °F79 %30.56 in3.0 miEast (80°)6.9 mphRainLight Drizzle
10:23 AM42.8 °F0.0 °F2.0 miEast (80°)8.1 mphLight Drizzle
10:52 AM42.8 °F0.0 °F2.0 miEast (100°)8.1 mphLight Drizzle
11:00 AM42.8 °F39.2 °F87 %30.56 in2.0 miEast (90°)8.1 mphLight Drizzle
11:20 AM42.8 °F0.0 °F3.0 miEast (90°)8.1 mphRainLight Rain
11:56 AM42.8 °F0.0 °F3.0 miEast (100°)8.1 mphRainLight Rain
12:00 PM42.8 °F39.2 °F87 %30.57 in3.0 miEast (100°)9.2 mphRainLight Rain
12:24 PM42.8 °F0.0 °F6.0 miEast (90°)6.9 mphRainLight Rain
1:00 PM44.6 °F39.2 °F81 %30.57 in7.0 miEast (90°)6.9 mphRainLight Rain
1:26 PM44.6 °F0.0 °F7.0 miEast (90°)5.8 mphRainLight Rain
1:51 PM44.6 °F0.0 °F7.0 miEast (90°)6.9 mphLight Drizzle
2:00 PM44.6 °F39.2 °F81 %30.57 in7.0 miEast (90°)9.2 mphLight Drizzle
2:56 PM44.6 °F0.0 °F12.0 miEast (80°)6.9 mphOvercast
3:00 PM44.6 °F39.2 °F81 %30.58 in12.0 miENE (70°)8.1 mphOvercast
3:35 PM44.6 °F0.0 °F8.0 miESE (110°)8.1 mphLight Drizzle
4:00 PM44.6 °F39.2 °F81 %30.57 in12.0 miESE (120°)6.9 mphOvercast
4:00 PM45.0 °F39.0 °F74 %30.57 in12.0 miESE (110°)5.8 mphRainLight Drizzle
5:00 PM44.6 °F39.2 °F81 %30.58 in12.0 miEast (100°)4.6 mphOvercast
6:00 PM44.6 °F39.2 °F81 %30.57 in12.0 miEast (90°)4.6 mphOvercast
7:00 PM44.6 °F39.2 °F81 %30.58 in15.0 miEast (100°)3.5 mphOvercast
8:00 PM44.6 °F39.2 °F81 %30.58 in15.0 miESE (120°)3.5 mphOvercast
9:00 PM44.6 °F39.2 °F81 %30.58 in15.0 miEast (100°)3.5 mphOvercast
9:46 PM44.6 °F0.0 °F12.0 miESE (120°)4.6 mphOvercast
10:00 PM44.0 °F39.0 °F78 %30.59 in12.0 miESE (120°)5.8 mphPartly Cloudy
10:00 PM44.6 °F39.2 °F81 %30.59 in12.0 miESE (110°)4.6 mphOvercast
11:00 PM42.8 °F39.2 °F87 %30.60 in8.0 miESE (120°)4.6 mphOvercast
11:14 PM42.8 °F0.0 °F8.0 miESE (110°)4.6 mphLight Drizzle
Hourly data recorded from CYVR, located miles away from Vancouver - University, British Columbia







STORIES FROM OUR PARTNERS